Terug naar catalogus

STARLINK-30300

ActiefCommunicatieVLEO
NORAD 57715·PAYLOAD·🇺🇸 United States

Gelanceerd Aug 27, 2023 vanaf Cape Canaveral Space Force Station

Loading…

Volgende Passages (komende 24 uur)

TLE

VersSource: CelesTrak SupGP

Epoch: Sep 14, 2026, 21:07 UTC

1 57715C 23129T   26257.88034722 -.00041912  00000+0 -15181-2 0  2571
2 57715  42.9991 129.5006 0001321 267.2794 188.3714 15.27598819    16

Volg STARLINK-30300 in realtime met AllMySat

Download on the App Store